Lake Eufaula Weather Center

Moon Phase Calendar



Lake Eufaula Water Level
Online Cameras

 


      

Current Conditions in Georgetown
9/25/2022 11:14:02 PM

70°F
Feels Like 69
Clouds
Humidity
61%
Pressure
29.88"
Wind
2.8 mph (NW)
Dew Point
56°F
UV Index
0/10 (Low)
Visibility
6 mi

Hourly Forecast

Date & Time Sun, Sep 25
11:00 PM
Mon, Sep 26
12:00 AM
Mon, Sep 26
1:00 AM
Mon, Sep 26
2:00 AM
Mon, Sep 26
3:00 AM
Mon, Sep 26
4:00 AM
Mon, Sep 26
5:00 AM
Mon, Sep 26
6:00 AM
Mon, Sep 26
7:00 AM
Mon, Sep 26
8:00 AM
Mon, Sep 26
9:00 AM
Mon, Sep 26
10:00 AM
Mon, Sep 26
11:00 AM
Mon, Sep 26
12:00 PM
Mon, Sep 26
1:00 PM
Mon, Sep 26
2:00 PM
Mon, Sep 26
3:00 PM
Mon, Sep 26
4:00 PM
Mon, Sep 26
5:00 PM
Mon, Sep 26
6:00 PM
Mon, Sep 26
7:00 PM
Mon, Sep 26
8:00 PM
Mon, Sep 26
9:00 PM
Mon, Sep 26
10:00 PM
Mon, Sep 26
11:00 PM
Tue, Sep 27
12:00 AM
Tue, Sep 27
1:00 AM
Tue, Sep 27
2:00 AM
Tue, Sep 27
3:00 AM
Tue, Sep 27
4:00 AM
Tue, Sep 27
5:00 AM
Tue, Sep 27
6:00 AM
Tue, Sep 27
7:00 AM
Tue, Sep 27
8:00 AM
Tue, Sep 27
9:00 AM
Tue, Sep 27
10:00 AM
Tue, Sep 27
11:00 AM
Tue, Sep 27
12:00 PM
Tue, Sep 27
1:00 PM
Tue, Sep 27
2:00 PM
Tue, Sep 27
3:00 PM
Tue, Sep 27
4:00 PM
Tue, Sep 27
5:00 PM
Tue, Sep 27
6:00 PM
Tue, Sep 27
7:00 PM
Tue, Sep 27
8:00 PM
Tue, Sep 27
9:00 PM
Tue, Sep 27
10:00 PM
Condition
Clouds

Clouds

Clouds

Clouds

Clouds

Clear

Clear

Clear

Clouds

Clouds

Clouds

Clouds

Clouds

Clouds

Clouds

Clouds

Clouds

Clouds

Clouds

Clouds

Clouds

Clouds

Clouds

Clouds

Clouds

Clouds

Clouds

Clouds

Clouds

Clouds

Clouds

Clouds

Clouds

Clouds

Clear

Clear

Clouds

Clouds

Clouds

Clouds

Clouds

Clouds

Clouds

Clouds

Clouds

Clouds

Clouds

Clouds
Temperature 70°F71°F71°F71°F71°F71°F70°F69°F68°F69°F75°F80°F84°F87°F90°F92°F93°F92°F91°F88°F83°F77°F74°F73°F70°F68°F65°F64°F62°F61°F60°F59°F58°F57°F63°F69°F74°F78°F80°F81°F82°F82°F82°F79°F74°F69°F69°F69°F
Feels Like 69°F70°F71°F71°F71°F71°F70°F69°F68°F69°F75°F80°F84°F88°F90°F91°F91°F90°F88°F85°F81°F76°F73°F71°F69°F66°F64°F62°F61°F59°F58°F57°F56°F55°F61°F67°F72°F76°F79°F79°F80°F80°F79°F79°F72°F67°F67°F67°F
Cloudiness 65%66%68%64%22%10%9%10%14%16%48%31%24%24%35%39%49%52%68%76%79%81%97%85%83%66%59%54%60%34%24%20%21%19%7%7%31%35%42%52%100%100%100%100%100%100%100%100%
Visibility 6 mi6 mi6 mi6 mi6 mi6 mi6 mi6 mi6 mi6 mi6 mi6 mi6 mi6 mi6 mi6 mi6 mi6 mi6 mi6 mi6 mi6 mi6 mi6 mi6 mi6 mi6 mi6 mi6 mi6 mi6 mi6 mi6 mi6 mi6 mi6 mi6 mi6 mi6 mi6 mi6 mi6 mi6 mi6 mi6 mi6 mi6 mi6 mi
Precipitation 0%0%0%0%0%0%0%0%0%0%0%0%0%0%0%0%0%0%0%0%0%0%0%0%0%0%0%0%0%0%0%0%0%0%0%0%0%0%0%0%0%0%0%0%0%0%0%0%
Humidity 61%62%63%66%68%70%71%73%75%74%64%54%48%44%39%34%29%28%27%29%34%37%36%35%38%42%46%49%53%55%55%56%56%57%45%32%23%19%16%16%16%16%16%19%25%27%27%28%
Dew Point 56°F57°F58°F59°F60°F60°F60°F60°F60°F61°F61°F62°F62°F63°F61°F60°F56°F54°F52°F52°F51°F49°F46°F44°F43°F43°F44°F44°F44°F44°F43°F43°F42°F42°F41°F38°F34°F32°F31°F31°F31°F31°F31°F34°F36°F34°F34°F34°F
Pressure 29.88"29.88"29.88"29.88"29.88"29.88"29.88"29.88"29.88"29.91"29.91"29.91"29.91"29.91"29.88"29.85"29.83"29.83"29.83"29.83"29.85"29.88"29.91"29.94"29.94"29.94"29.97"29.97"29.97"29.97"29.97"29.97"30"30"30.03"30.03"30.03"30.03"30"30"29.97"29.94"29.94"29.97"30"30"30"30.03"
Wind Speed 2.8 mph0.8 mph1.5 mph2.6 mph3.4 mph3.4 mph2.9 mph4.1 mph2.6 mph3.3 mph3.8 mph5.7 mph5.9 mph6.4 mph7.5 mph8.6 mph10.6 mph12.1 mph12.1 mph10.9 mph9.2 mph7.7 mph8.4 mph10.1 mph8.6 mph7.4 mph7.6 mph7.1 mph6 mph6.1 mph6 mph6.9 mph6.1 mph5.8 mph7.6 mph9.7 mph11.2 mph11 mph11.1 mph9.3 mph9.9 mph11 mph11.1 mph10.4 mph7.5 mph7.6 mph10.6 mph10.1 mph
Wind
Direction
322°
NW
279°
W
213°
SSW
208°
SSW
215°
SW
225°
SW
244°
WSW
307°
NW
278°
W
271°
W
294°
WNW
314°
NW
315°
NW
306°
NW
305°
NW
300°
WNW
301°
WNW
304°
NW
306°
NW
313°
NW
314°
NW
319°
NW
334°
NNW
348°
NNW
356°
N
359°
N

N

N

N

N

N

N
15°
NNE
18°
NNE
25°
NNE
27°
NNE
21°
NNE
20°
NNE
13°
NNE
20°
NNE
13°
NNE
11°
N
15°
NNE
16°
NNE
25°
NNE
12°
NNE
11°
N
16°
NNE

Daily Forecast

Date High Low Precip. Humidity
Today
Sep 25

Clouds
90 °F
63 °F
0%
36%
Monday
Sep 26

Clouds
93 °F
68 °F
0%
39%
Tuesday
Sep 27

Clouds
82 °F
57 °F
0%
16%
Wednesday
Sep 28

Clouds
76 °F
61 °F
0%
24%
Thursday
Sep 29

Clouds
74 °F
63 °F
2%
34%
Friday
Sep 30

Rain
68 °F
61 °F
100%
93%
Saturday
Oct 1

Rain
69 °F
62 °F
100%
91%
Sunday
Oct 2

Clear
85 °F
62 °F
0%
40%
Monday
Oct 3

Clear
87 °F
64 °F
0%
36%
Tuesday
Oct 4

Clear
89 °F
67 °F
0%
36%
Wednesday
Oct 5

Clouds
88 °F
68 °F
0%
39%
Thursday
Oct 6

Clouds
89 °F
68 °F
0%
34%
Friday
Oct 7

Clear
87 °F
66 °F
0%
34%
Saturday
Oct 8

Clear
83 °F
63 °F
0%
36%
Sunday
Oct 9

Clear
84 °F
63 °F
0%
41%
Monday
Oct 10

Clear
86 °F
64 °F
0%
43%

Temperature 8-14 Day Outlook



Precipitation 8-14 Day Outlook




Quick Links
Lake Eufaula News
Lake Eufaula Photos
Lake Eufaula Videos




About Us
Contact Us
Site Map
Search Site
Advertise With Us
   
www.LakeEufaula.info
THE LAKE EUFAULA WEBSITE

Copyright 2022, Lakes Online
Privacy    |    Legal